Vertical_Velocity
21 7 -6 -0 -3 -4 2 1 1 -1 4 -1 -0 1 0 2 -4 1 0 2 0 1
9 2 -2 4 2 -2 0 -2 1 -2 0 3 2 3 1 -2 -1 -0 -1 3 -0 -1
-1 10 -2 -5 0 3 2 2 3 5 2 2 -1 1 -0 -2 4 -2 -3 0 -0 -1
4 -0 -0 1 3 1 2 2 1 -2 1 1 -6 -2 2 0 -1 -2 3 -1 -2 -2
2 -0 0 -1 -3 -3 1 -0 -1 -5 0 -1 -0 1 2 1 -1 2 -1 3 2 1
-0 -0 -4 1 -2 0 1 4 -1 -1 1 1 4 -1 2 2 1 -0 0 -3 -2 1
0 -2 0 -1 -1 1 1 0 3 1 2 2 0 -1 -1 1 2 -2 -2 0 -0 -0
-2 1 -1 0 1 1 3 1 2 1 2 -1 -2 2 1 -0 -2 0 2 -1 0 3
-2 -2 1 3 -0 -1 -2 1 -1 -1 0 1 2 -3 -2 -2 -1 0 1 3 2 -2
1 0 -1 -1 -0 0 1 2 1 -1 -1 -2 -3 -3 -3 -2 1 2 2 -1 -3 -2
1 1 0 1 1 0 -1 -2 -2 -2 -2 -2 -1 2 3 3 1 -2 -2 0 1 1
-0 0 -0 -1 -0 0 -1 -1 -1 -1 -0 2 4 1 -0 -3 -2 -1 0 -0 -1 -4
1 1 -2 -1 -2 -2 0 2 2 4 1 -2 1 -2 1 1 -0 -4 -3 -5 -4 -4
-1 0 1 1 3 3 2 1 -0 -0 -0 -1 -0 0 -3 -0 -3 -2 -1 -0 -2 -0
Height
1517 1511 1514 1517 1519 1522 1524 1523 1523 1524 1525 1524 1526 1524 1525 1524 1525 1525 1524 1523 1522 1524
1512 1510 1509 1513 1516 1519 1520 1520 1521 1521 1522 1522 1522 1522 1521 1522 1521 1521 1522 1521 1519 1520
1507 1505 1507 1510 1513 1515 1516 1517 1518 1519 1519 1519 1520 1520 1518 1518 1518 1518 1518 1517 1516 1515
1502 1502 1503 1507 1510 1512 1514 1514 1514 1516 1517 1516 1517 1517 1516 1515 1514 1513 1513 1512 1511 1511
1498 1499 1502 1505 1508 1509 1511 1511 1511 1513 1514 1513 1513 1513 1513 1510 1510 1510 1508 1508 1508 1506
1494 1496 1499 1502 1504 1506 1507 1508 1508 1510 1510 1510 1509 1508 1508 1508 1507 1507 1504 1504 1503 1503
1491 1494 1497 1499 1502 1504 1505 1505 1506 1506 1507 1506 1505 1505 1505 1505 1502 1501 1501 1500 1499 1499
1490 1493 1495 1498 1499 1500 1502 1502 1502 1502 1503 1503 1503 1502 1501 1500 1498 1499 1497 1496 1495 1494
1489 1491 1493 1494 1496 1497 1498 1499 1498 1499 1500 1499 1499 1498 1497 1496 1495 1494 1493 1492 1491 1490
1487 1489 1490 1492 1493 1494 1495 1495 1495 1495 1495 1494 1493 1493 1492 1491 1490 1490 1489 1488 1488 1487
1485 1487 1488 1489 1490 1491 1491 1490 1490 1490 1490 1489 1488 1487 1486 1485 1485 1484 1484 1484 1483 1482
1482 1484 1485 1485 1486 1486 1486 1486 1485 1485 1485 1485 1483 1482 1481 1481 1480 1480 1479 1478 1476 1475
1478 1479 1480 1480 1480 1480 1481 1481 1481 1480 1480 1479 1478 1477 1477 1476 1475 1473 1472 1472 1470 1469
1475 1476 1476 1476 1476 1476 1477 1476 1475 1475 1474 1473 1473 1472 1471 1471 1469 1468 1466 1464 1463 1462